Regional Weather Roundup
Issued by NWS Nashville, TN

Home | Current Version | Previous Version | Text Only | Print | Product List | Glossary On
Versions: 1 2 3 4 5 6 7 8 9 10 11 12 13 14 15 16 17 18 19 20 21 22 23 24 25 26 27
000
ASUS44 KOHX 062010
RWROHX
MIDDLE TENNESSEE HOURLY WEATHER ROUNDUP
NATIONAL WEATHER SERVICE NASHVILLE TN
200 PM CST TUE DEC 06 2016

NOTE: "FAIR" INDICATES FEW OR NO CLOUDS BELOW 12,000 FEET WITH
NO SIGNIFICANT WEATHER AND/OR OBSTRUCTIONS TO VISIBILITY.

* THESE REPORTS ARE NOT UNDER NWS QUALITY CONTROL AND MAY NOT
  REPORT WEATHER SUCH AS PRECIPITATION AND FOG.


TNZ005>011-023>034-057-059-062>066-078-080-062100
...NORTHERN MIDDLE TENNESSEE...

CITY           SKY/WX    TMP DP  RH WIND       PRES   REMARKS
CLARKSVILLE    CLOUDY    45  41  86 NW14      29.86R
CROSSVILLE     CLOUDY    54  52  93 W14       29.73R
LEBANON        CLOUDY    48  47  97 NW14      29.78R
NASHVILLE      CLOUDY    48  45  89 NW13G21   29.82R
PORTLAND       CLOUDY    46  45  93 NW12G18   29.81R
SMYRNA         CLOUDY    49  47  93 NW15G21   29.82R FOG
SPRINGFIELD    CLOUDY    45  45 100 NW10G17   29.83R
WEST NASHVILLE CLOUDY    46  45  93 NW16      29.81R
$$
TNZ056-058-060-061-075>077-079-093>097-062100
...SOUTHERN MIDDLE TENNESSEE...

CITY           SKY/WX    TMP DP  RH WIND       PRES   REMARKS
COLUMBIA       CLOUDY   N/A N/A N/A NW7       29.80R
FAYETTEVILLE   CLOUDY    54  50  87 NW8G15    29.79R
MCMINNVILLE    PTSUNNY   57  57 100 W7        29.72R
MURFREESBORO   CLOUDY    49  48  96 NW14      29.80R
SHELBYVILLE    CLOUDY    52  52 100 W13       29.80R
$$


...KEY TO REMARKS...
VSB - VISIBILITY IN MILES
WCI - WIND CHILL INDEX
HX  - HEAT INDEX





USA.gov is the U.S. government's official web portal to all federal, state and local government web resources and services.